Cloud_Cover
5 4 4 5 59 100 58 65 97 100 100 100 100 100 100 100 100 100 100 100 99 100 100 100 100 100 100 100 100 100 17 58 53 7 5 2 5 10 30 68 93 100 100 98
5 3 4 2 3 100 99 46 100 100 100 100 100 100 100 100 100 100 100 100 100 100 100 100 100 100 100 100 86 76 69 50 29 72 67 58 5 44 21 1 1 5 68 99
6 3 2 5 22 60 100 100 100 100 100 100 100 100 100 100 100 100 100 100 100 100 100 100 100 100 100 100 100 100 100 100 100 100 91 98 38 37 89 72 59 72 42 20
83 4 17 1 95 86 100 100 100 100 100 100 100 100 100 100 100 100 100 100 100 100 100 100 100 100 100 100 100 100 100 100 100 100 100 100 100 100 100 100 100 100 100 100
50 40 4 90 100 100 100 100 100 100 100 100 100 100 100 100 100 100 100 100 100 100 100 100 100 100 100 100 100 100 100 100 100 100 100 100 100 100 100 100 100 100 100 100
73 31 28 100 100 100 100 100 100 100 100 100 100 100 100 100 100 100 100 100 100 100 100 100 100 100 100 100 100 100 100 100 100 100 100 100 100 100 100 100 100 100 100 100
98 95 100 100 100 100 100 100 100 100 100 100 100 100 100 100 100 100 100 100 100 100 100 100 100 100 100 100 100 100 100 100 100 100 100 100 100 100 100 100 100 100 100 100
84 96 100 100 100 100 100 100 100 100 100 100 100 100 100 100 100 100 100 100 100 100 100 100 100 100 100 100 100 100 100 99 100 100 100 100 100 100 100 100 100 100 100 100
82 59 100 100 100 100 100 100 100 100 100 100 100 100 100 100 100 100 100 100 100 100 100 100 100 100 100 100 100 100 100 100 100 100 100 100 100 100 100 100 100 100 100 100
57 100 100 100 100 100 100 100 100 100 100 100 100 100 100 100 100 100 100 100 100 100 100 100 100 100 100 100 100 100 100 99 91 98 100 100 100 100 100 100 100 100 100 100
100 100 100 100 100 100 100 100 100 100 100 100 100 100 100 100 100 100 100 100 100 100 100 100 100 100 100 100 100 100 100 92 90 97 100 100 100 100 100 100 100 100 100 100
100 100 100 100 100 100 100 100 100 100 100 100 100 100 100 100 100 100 100 100 100 100 100 100 100 100 100 100 100 100 100 100 98 93 99 100 99 100 100 100 100 98 88 79
100 100 100 100 100 100 100 100 100 100 100 100 100 100 100 100 100 100 100 100 100 100 100 100 100 100 100 100 94 100 100 99 91 93 96 97 100 98 100 100 99 100 100 100
100 100 100 100 100 100 100 100 100 100 100 100 100 100 100 100 100 100 100 100 100 100 100 100 100 100 100 100 99 96 98 93 98 100 93 91 98 91 85 97 100 100 100 100
100 100 100 100 100 100 100 100 100 100 100 100 100 100 100 100 100 100 100 100 100 100 100 100 100 100 100 100 100 100 100 96 89 72 84 80 62 62 70 88 100 99 80 62
100 100 100 100 100 100 100 100 100 100 100 100 100 100 100 100 100 100 100 100 100 100 100 100 93 100 97 68 63 80 88 85 86 70 56 59 67 78 75 89 100 100 100 100
100 100 100 100 100 100 100 100 100 100 100 99 100 99 99 100 100 100 100 100 100 100 100 100 100 85 64 46 77 84 74 58 76 86 100 100 100 99 87 95 100 100 100 89
84 100 100 100 100 100 100 100 100 100 100 99 38 5 14 39 92 84 66 79 76 99 100 100 93 100 100 86 55 65 90 100 87 100 98 92 93 68 74 80 78 82 81 41
61 90 99 100 95 98 100 98 100 90 90 83 87 93 87 92 91 81 85 98 100 100 100 100 100 100 100 95 70 88 54 50 82 100 96 73 97 98 94 88 95 95 82 85
97 89 98 90 99 81 98 92 16 62 66 85 74 62 79 92 47 25 11 93 100 100 74 21 8 28 5 5 40 10 13 51 71 66 63 74 81 88 88 86 97 98 99 99
85 55 70 84 100 96 87 56 64 62 68 17 5 89 95 71 43 36 5 65 85 58 11 5 5 9 5 26 5 30 9 31 48 45 30 57 8 14 57 72 90 92 84 94
88 90 100 65 84 100 84 55 20 23 9 5 38 8 5 33 38 24 71 68 74 19 19 5 16 34 21 26 5 20 21 10 30 10 16 21 52 92 99 83 100 100 98 100
61 41 66 74 64 100 52 33 38 32 61 82 79 50 19 59 51 40 34 5 8 26 10 39 49 49 33 5 5 8 21 55 95 100 89 67 68 75 43 76 100 100 100 99
75 52 63 75 54 6 14 39 5 5 42 30 5 5 5 33 40 45 27 5 27 49 85 76 93 96 50 67 73 72 73 100 100 100 100 100 100 100 100 100 100 100 100 100
20 59 63 64 66 81 49 46 13 5 5 10 8 7 5 5 5 16 9 44 52 14 5 35 62 82 82 99 100 71 71 10 85 100 100 100 100 99 100 100 100 100 100 100
80 73 78 58 40 75 89 98 96 98 97 99 100 99 44 32 10 16 22 35 44 74 29 9 8 32 40 58 84 100 54 7 14 85 100 100 100 100 100 99 95 67 99 100
31 5 5 30 54 63 74 65 90 100 100 100 96 86 55 32 60 57 81 92 91 88 98 100 99 85 63 95 82 56 92 98 93 68 99 100 100 100 100 100 90 77 88 100